Time,TemperatureF,DewpointF,PressureIn,WindDirection,WindDirectionDegrees,WindSpeedMPH,WindSpeedGustMPH,Humidity,HourlyPrecipIn,Conditions,Clouds,dailyrainin,SoftwareType,DateUTC
2013-02-09 00:00:00,19.0,-99.9,-100.00,SSW,212,2.0,-999.0,-999,-99.99,,,-99.99,,2013-02-09 08:00:00,
2013-02-09 01:00:00,19.0,-99.9,-100.00,SSW,195,2.0,-999.0,-999,-99.99,,,-99.99,,2013-02-09 09:00:00,
2013-02-09 02:00:00,18.0,-99.9,-100.00,SW,224,3.0,-999.0,-999,-99.99,,,-99.99,,2013-02-09 10:00:00,
2013-02-09 03:00:00,18.0,-99.9,-100.00,WSW,242,2.0,-999.0,-999,-99.99,,,-99.99,,2013-02-09 11:00:00,
2013-02-09 03:53:00,18.0,-99.9,-100.00,WSW,242,2.0,-999.0,-999,-99.99,,,-99.99,,2013-02-09 11:53:00,
2013-02-09 04:00:00,19.0,-99.9,-100.00,West,262,3.0,-999.0,-999,-99.99,,,-99.99,,2013-02-09 12:00:00,
2013-02-09 05:00:00,20.0,-99.9,-100.00,WSW,245,5.0,-999.0,-999,-99.99,,,-99.99,,2013-02-09 13:00:00,
2013-02-09 06:00:00,20.0,-99.9,-100.00,WSW,256,3.0,-999.0,-999,-99.99,,,-99.99,,2013-02-09 14:00:00,
2013-02-09 07:00:00,20.0,-99.9,-100.00,West,269,5.0,-999.0,-999,-99.99,,,-99.99,,2013-02-09 15:00:00,
2013-02-09 08:00:00,21.0,-99.9,-100.00,West,266,5.0,-999.0,-999,-99.99,,,-99.99,,2013-02-09 16:00:00,
2013-02-09 09:00:00,26.0,-99.9,-100.00,WSW,258,5.0,-999.0,-999,-99.99,,,-99.99,,2013-02-09 17:00:00,
2013-02-09 10:00:00,31.0,-99.9,-100.00,WSW,240,3.0,-999.0,-999,-99.99,,,-99.99,,2013-02-09 18:00:00,
2013-02-09 11:00:00,36.0,-99.9,-100.00,North,357,3.0,-999.0,-999,-99.99,,,-99.99,,2013-02-09 19:00:00,
2013-02-09 12:00:00,38.0,-99.9,-100.00,North,359,5.0,-999.0,-999,-99.99,,,-99.99,,2013-02-09 20:00:00,
2013-02-09 13:00:00,41.0,-99.9,-100.00,North,359,6.0,-999.0,-999,-99.99,,,-99.99,,2013-02-09 21:00:00,
2013-02-09 13:52:00,41.0,-99.9,-100.00,North,359,6.0,-999.0,-999,-99.99,,,-99.99,,2013-02-09 21:52:00,
2013-02-09 14:00:00,42.0,-99.9,-100.00,North,356,6.0,-999.0,-999,-99.99,,,-99.99,,2013-02-09 22:00:00,
2013-02-09 15:00:00,42.0,-99.9,-100.00,North,7,5.0,-999.0,-999,-99.99,,,-99.99,,2013-02-09 23:00:00,
2013-02-09 16:00:00,42.0,-99.9,-100.00,NNW,340,6.0,-999.0,-999,-99.99,,,-99.99,,2013-02-10 00:00:00,
2013-02-09 17:00:00,39.0,-99.9,-100.00,NNW,332,6.0,-999.0,-999,-99.99,,,-99.99,,2013-02-10 01:00:00,
2013-02-09 18:00:00,37.0,-99.9,-100.00,NNW,334,5.0,-999.0,-999,-99.99,,,-99.99,,2013-02-10 02:00:00,
2013-02-09 19:00:00,35.0,-99.9,-100.00,NNW,347,3.0,-999.0,-999,-99.99,,,-99.99,,2013-02-10 03:00:00,
2013-02-09 20:00:00,31.0,-99.9,-100.00,NW,322,1.0,-999.0,-999,-99.99,,,-99.99,,2013-02-10 04:00:00,
2013-02-09 21:00:00,28.0,-99.9,-100.00,SW,220,2.0,-999.0,-999,-99.99,,,-99.99,,2013-02-10 05:00:00,
2013-02-09 22:00:00,27.0,-99.9,-100.00,SW,236,2.0,-999.0,-999,-99.99,,,-99.99,,2013-02-10 06:00:00,
2013-02-09 23:00:00,25.0,-99.9,-100.00,West,262,1.0,-999.0,-999,-99.99,,,-99.99,,2013-02-10 07:00:00,